Pasco, WA

8:15 AM PST on December 12, 2017 (GMT -0800)
Tri-Cities

Weather History for KPSC - November, 2013

Change the Weather History Date:

Wednesday, November 6, 2013

  Actual Average Record
Temperature  
Mean Temperature 40 °F 45 °F  
Max Temperature 48 °F 55 °F 72 °F (2006)
Min Temperature 32 °F 34 °F 12 °F (2003)
Degree Days  
Heating Degree Days 25 20  
Month to date heating degree days 123 117  
Since 1 July heating degree days 676 635  
Cooling Degree Days 0 0  
Month to date cooling degree days 0 0  
Year to date cooling degree days 995 710  
Moisture  
Dew Point 37 °F    
Average Humidity 86    
Maximum Humidity 100    
Minimum Humidity 71    
Precipitation  
Precipitation 0.05 in 0.03 in 0.20 in (1999)
Month to date precipitation 0.26 0.18  
Year to date precipitation 4.61 6.71  
Snow  
Snow 0.00 in - - ()
Snow Depth 0.00 in    
Sea Level Pressure  
Sea Level Pressure 30.34 in    
Wind  
Wind Speed 5 mph (NW)    
Max Wind Speed 13 mph    
Max Gust Speed 16 mph    
Visibility 9 miles    
Events Rain    
T = Trace of Precipitation, MM = Missing Value Source: NWS Daily Summary

Daily Weather History Graph

Daily Weather History Graph

Search for Another Location

Airport or City:

Trip Planner

Search our weather history database for the weather conditions in past years. The results will help you decide how hot, cold, wet, or windy it might be!

Date:

Astronomy

Nov. 06, 2013 Rise Set
Actual Time 6:45 AM PST 4:34 PM PST
Civil Twilight 6:13 AM PST 5:06 PM PST
Nautical Twilight 5:37 AM PST 5:41 PM PST
Astronomical Twilight 5:02 AM PST 6:17 PM PST
Moon 10:09 AM PST (11/6) 7:39 PM PST (11/6)
Length of Visible Light 10h 52m
Length of Day
9h 49m
Waxing Crescent, 14% of the Moon is Illuminated
Nov 6
Waxing Crescent
Nov 9
First Quarter
Nov 17
Full
Nov 25
Last Quarter
Dec 2
New

Hourly Weather History & Observations

Time (PST) Temp. Windchill Dew Point Humidity Pressure Visibility Wind Dir Wind Speed Gust Speed Precip Events Conditions
12:53 AM 33.1 °F 28.7 °F 32.0 °F 96% 30.27 in 8.0 mi North 4.6 mph - N/A   Clear
1:53 AM 33.1 °F 28.7 °F 33.1 °F 100% 30.29 in 8.0 mi NNW 4.6 mph - N/A   Clear
2:53 AM 34.0 °F 29.8 °F 33.1 °F 96% 30.30 in 10.0 mi WSW 4.6 mph - N/A   Clear
3:19 AM 33.8 °F 30.8 °F 32.0 °F 93% 30.29 in 7.0 mi West 3.5 mph - N/A   Mostly Cloudy
3:53 AM 33.1 °F 28.7 °F 32.0 °F 96% 30.31 in 6.0 mi North 4.6 mph - N/A   Overcast
4:53 AM 34.0 °F - 34.0 °F 100% 30.34 in 7.0 mi Calm Calm - N/A   Overcast
5:51 AM 35.6 °F 32.8 °F 35.6 °F 100% 30.34 in 7.0 mi WNW 3.5 mph - N/A   Overcast
5:53 AM 36.0 °F - 36.0 °F 100% 30.35 in 7.0 mi Calm Calm - N/A   Overcast
6:53 AM 37.0 °F 34.5 °F 37.0 °F 100% 30.36 in 5.0 mi NW 3.5 mph - N/A   Overcast
7:53 AM 37.9 °F 33.5 °F 37.0 °F 97% 30.38 in 10.0 mi NW 5.8 mph - N/A   Overcast
8:53 AM 39.9 °F 35.8 °F 37.9 °F 93% 30.40 in 10.0 mi NW 5.8 mph - N/A   Overcast
9:31 AM 41.0 °F 37.1 °F 37.4 °F 87% 30.39 in 10.0 mi WNW 5.8 mph - N/A   Overcast
9:53 AM 42.1 °F 40.2 °F 39.0 °F 89% 30.40 in 10.0 mi WNW 3.5 mph - N/A   Overcast
10:53 AM 45.0 °F 41.8 °F 37.9 °F 76% 30.40 in 10.0 mi NNW 5.8 mph - N/A   Overcast
11:53 AM 46.0 °F 43.1 °F 37.9 °F 73% 30.39 in 10.0 mi Variable 5.8 mph - N/A   Mostly Cloudy
12:53 PM 46.0 °F 43.1 °F 39.0 °F 76% 30.37 in 10.0 mi NNW 5.8 mph - N/A   Overcast
1:01 PM 46.4 °F 42.9 °F 37.4 °F 71% 30.36 in 10.0 mi North 6.9 mph - N/A   Mostly Cloudy
1:53 PM 46.9 °F - 37.9 °F 71% 30.36 in 10.0 mi NNW 5.8 mph - N/A   Partly Cloudy
2:53 PM 46.9 °F - 37.9 °F 71% 30.35 in 10.0 mi NW 4.6 mph - N/A   Mostly Cloudy
3:53 PM 46.9 °F - 39.0 °F 74% 30.34 in 10.0 mi NW 6.9 mph - N/A   Overcast
4:53 PM 45.0 °F 40.6 °F 37.9 °F 76% 30.33 in 10.0 mi NW 8.1 mph - N/A   Overcast
5:53 PM 44.1 °F 40.1 °F 37.9 °F 79% 30.33 in 10.0 mi NW 6.9 mph - N/A   Overcast
6:53 PM 44.1 °F 39.5 °F 37.9 °F 79% 30.33 in 10.0 mi NW 8.1 mph - N/A   Overcast
7:53 PM 44.1 °F 40.1 °F 37.9 °F 79% 30.31 in 10.0 mi NNW 6.9 mph - N/A   Overcast
8:53 PM 43.0 °F 38.8 °F 37.9 °F 82% 30.30 in 10.0 mi NW 6.9 mph - 0.00 in   Overcast
9:53 PM 42.1 °F 36.6 °F 39.0 °F 89% 30.29 in 10.0 mi NW 9.2 mph - 0.01 in Rain Light Rain
10:53 PM 41.0 °F 34.3 °F 39.0 °F 93% 30.27 in 10.0 mi NW 11.5 mph - 0.01 in Rain Light Rain
11:53 PM 41.0 °F 35.2 °F 39.9 °F 96% 30.25 in 7.0 mi NW 9.2 mph - 0.03 in Rain Light Rain